New York, NY

6:02 AM EDT on October 15, 2019 (GMT -0400)
La Guardia

Weather History for KLGA - September, 2019

Change the Weather History Date:

Tuesday, September 17, 2019

  Actual Average Record
Temperature  
Mean Temperature 71 °F 69 °F  
Max Temperature 79 °F 76 °F 95 °F (1991)
Min Temperature 63 °F 62 °F 48 °F (1959)
Degree Days  
Heating Degree Days 0 1  
Month to date heating degree days 0 6  
Since 1 July heating degree days 0 7  
Cooling Degree Days 6 5  
Month to date cooling degree days 135 117  
Year to date cooling degree days 1364 1150  
Growing Degree Days 21 (Base 50)    
Moisture  
Dew Point 46 °F    
Average Humidity 41    
Maximum Humidity 60    
Minimum Humidity 22    
Precipitation  
Precipitation 0.00 in 0.12 in 1.65 in (1996)
Month to date precipitation 0.61 2.05  
Year to date precipitation 36.45 32.30  
Snow  
Snow 0.00 in 0.00 in - ()
Month to date snowfall 0.0 0.0  
Since 1 July snowfall 0.0 0.0  
Snow Depth 0.00 in    
Sea Level Pressure  
Sea Level Pressure 30.11 in    
Wind  
Wind Speed 9 mph (NE)    
Max Wind Speed 18 mph    
Max Gust Speed 23 mph    
Visibility 10 miles    
Events      
T = Trace of Precipitation, MM = Missing Value Source: NWS Daily Summary

Daily Weather History Graph

Daily Weather History Graph

Search for Another Location

Airport or City:

Astronomy

Sep. 17, 2019 Rise Set
Actual Time 6:37 AM EDT 7:01 PM EDT
Civil Twilight 6:10 AM EDT 7:28 PM EDT
Nautical Twilight 5:38 AM EDT 8:01 PM EDT
Astronomical Twilight 5:04 AM EDT 8:34 PM EDT
Moon 9:02 PM EDT (9/17) 9:40 AM EDT (9/17)
Length of Visible Light 13h 18m
Length of Day
12h 23m
Waning Gibbous, 89% of the Moon is Illuminated
Sep 17
Waning Gibbous
Sep 21
Last Quarter
Sep 28
New
Oct 5
First Quarter
Oct 13
Full

Hourly Weather History & Observations

Time (EDT) Temp. Dew Point Humidity Pressure Visibility Wind Dir Wind Speed Gust Speed Precip Events Conditions
12:51 AM 70.0 °F 52.0 °F 53% 30.07 in 10.0 mi East 9.2 mph - N/A   Overcast
1:51 AM 68.0 °F 53.1 °F 59% 30.07 in 10.0 mi North 5.8 mph - N/A   Mostly Cloudy
2:51 AM 66.9 °F 51.1 °F 57% 30.08 in 10.0 mi NNE 8.1 mph - N/A   Mostly Cloudy
3:51 AM 66.0 °F 48.9 °F 54% 30.08 in 10.0 mi NNE 9.2 mph - N/A   Scattered Clouds
4:51 AM 64.9 °F 48.9 °F 56% 30.09 in 10.0 mi NNE 8.1 mph - N/A   Partly Cloudy
5:51 AM 64.0 °F 48.9 °F 58% 30.10 in 10.0 mi NNE 9.2 mph - N/A   Clear
6:51 AM 63.0 °F 48.0 °F 58% 30.12 in 10.0 mi North 8.1 mph - N/A   Partly Cloudy
7:51 AM 64.0 °F 46.9 °F 54% 30.14 in 10.0 mi North 5.8 mph - N/A   Clear
8:51 AM 66.9 °F 46.0 °F 47% 30.14 in 10.0 mi North 5.8 mph - N/A   Clear
9:51 AM 69.1 °F 48.0 °F 47% 30.15 in 10.0 mi ENE 6.9 mph - N/A   Clear
10:51 AM 72.0 °F 44.1 °F 37% 30.15 in 10.0 mi NE 9.2 mph 23.0 mph N/A   Clear
11:51 AM 73.0 °F 41.0 °F 31% 30.14 in 10.0 mi NE 13.8 mph - N/A   Partly Cloudy
12:51 PM 73.9 °F 43.0 °F 33% 30.13 in 10.0 mi ENE 9.2 mph - N/A   Clear
1:51 PM 75.0 °F 42.1 °F 31% 30.12 in 10.0 mi Variable 4.6 mph - N/A   Clear
2:51 PM 75.9 °F 39.9 °F 27% 30.10 in 10.0 mi North 9.2 mph 18.4 mph N/A   Clear
3:51 PM 77.0 °F 39.0 °F 25% 30.09 in 10.0 mi North 13.8 mph - N/A   Clear
4:51 PM 77.0 °F 36.0 °F 23% 30.08 in 10.0 mi NNW 13.8 mph - N/A   Clear
5:51 PM 75.0 °F 35.1 °F 23% 30.09 in 10.0 mi NNE 13.8 mph - N/A   Partly Cloudy
6:51 PM 73.0 °F 37.9 °F 28% 30.10 in 10.0 mi NE 12.7 mph 23.0 mph N/A   Partly Cloudy
7:51 PM 71.1 °F 46.9 °F 42% 30.12 in 10.0 mi ENE 12.7 mph - N/A   Clear
8:51 PM 70.0 °F 46.0 °F 42% 30.13 in 10.0 mi ESE 8.1 mph - N/A   Clear
9:51 PM 70.0 °F 45.0 °F 41% 30.14 in 10.0 mi East 8.1 mph - N/A   Clear
10:51 PM 66.9 °F 51.1 °F 57% 30.15 in 10.0 mi SE 5.8 mph - N/A   Clear
11:51 PM 66.0 °F 52.0 °F 60% 30.15 in 10.0 mi East 6.9 mph - N/A   Clear